Regional Weather Roundup
Issued by NWS

Home | Current Version | Previous Version | Graphics & Text | Print | Product List | Glossary On
Versions: 1 2 3 4 5 6 7 8 9 10 11 12 13 14 15 16 17 18 19 20 21 22 23 24 25 26 27 28 29 30 31 32 33 34 35 36 37 38 39 40 41 42 43 44 45 46 47 48 49 50
000
ASUS43 KMKX 230021
RWRWI

WISCONSIN REGIONAL WEATHER ROUNDUP
NATIONAL WEATHER SERVICE MILWAUKEE/SULLIVAN WI
600 PM CST WED FEB 22 2017

NOTE: "FAIR" INDICATES FEW OR NO CLOUDS BELOW 12,000 FEET WITH NO
SIGNIFICANT WEATHER AND/OR OBSTRUCTIONS TO VISIBILITY.

WIZ001-002-006>008-014>016-023>028-230100-
NORTHWEST WISCONSIN

CITY           SKY/WX    TMP DP  RH WIND       PRES   REMARKS
SUPERIOR ARPT  DRIZZLE   36  35  96 NE5       29.67R WCI  32
6HR MIN TEMP:  36; 6HR MAX TEMP:  45;

ASHLAND        FOG       33  33 100 NE6       29.61F VSB 1/4 WCI  28
6HR MIN TEMP:  33; 6HR MAX TEMP:  44; 6HR PCP: TRACE;

HAYWARD        CLOUDY    45  37  73 NW7       29.61R
6HR MIN TEMP:  44; 6HR MAX TEMP:  52; 6HR PCP:  0.01;

SIREN          CLOUDY    47  38  68 N6        29.59R
6HR MIN TEMP:  41; 6HR MAX TEMP:  53;

CUMBERLAND     CLOUDY    43  41  93 NW3       29.58R FOG
RICE LAKE      CLOUDY    45  43  91 CALM      29.58R
6HR MIN TEMP:  46; 6HR MAX TEMP:  55;

CHETEK         CLOUDY    47  42  83 CALM      29.56R
6HR MIN TEMP:  47; 6HR MAX TEMP:  55;

LADYSMITH      CLOUDY    47  43  87 N3        29.58S
6HR MIN TEMP:  47; 6HR MAX TEMP:  54;

EAU CLAIRE     PTCLDY    52  41  66 NW5       29.54S
6HR MIN TEMP:  51; 6HR MAX TEMP:  57;

MENOMONIE      PTCLDY    49  40  71 W5        29.56R
6HR MIN TEMP:  52; 6HR MAX TEMP:  57;

NEW RICHMOND   MOCLDY    46  44  92 NW6       29.59R
6HR MIN TEMP:  46; 6HR MAX TEMP:  57;

OSCEOLA        FOG       45  45 100 NW5       29.61R VSB 1/2
6HR MIN TEMP:  45; 6HR MAX TEMP:  53;

$$

WIZ003>005-009-010-017-018-230100-
NORTH CENTRAL WISCONSIN

CITY           SKY/WX    TMP DP  RH WIND       PRES   REMARKS
MANITOWISH WTR CLOUDY    40  40 100 CALM      29.56R
6HR MIN TEMP:  40; 6HR MAX TEMP:  46; 6HR PCP:  0.11;

ARBOR VITAE    CLOUDY    43  42  95 NE3         N/A
6HR MIN TEMP:  43; 6HR MAX TEMP:  52; 6HR PCP:  0.03;

WOODRUFF       CLOUDY    43  42  95 NE3         N/A
6HR MIN TEMP:  43; 6HR MAX TEMP:  52; 6HR PCP:  0.03;

RHINELANDER    CLOUDY    45  42  89 SE7       29.54R
6HR MIN TEMP:  45; 6HR MAX TEMP:  55; 6HR PCP:  0.03;

EAGLE RIVER    DRIZZLE   42  42 100 N6        29.54R
6HR MIN TEMP:  42; 6HR MAX TEMP:  50;

LAND O LAKES   CLOUDY    41  41 100 NE5       29.57R FOG
6HR MIN TEMP:  41; 6HR MAX TEMP:  50; 6HR PCP:  0.09;

PHILLIPS       LGT RAIN  43  43  99 CALM      29.58R
6HR MIN TEMP:  44; 6HR MAX TEMP:  49; 6HR PCP:  0.02;

TOMAHAWK       CLOUDY    45  40  82 CALM      29.55R
6HR MIN TEMP:  45; 6HR MAX TEMP:  53;

MEDFORD        CLOUDY    48  41  76 S5        29.55R
6HR MIN TEMP:  47; 6HR MAX TEMP:  53;

MERRILL        NOT AVBL
$$

WIZ029-030-035-036-043>047-230100-
CENTRAL WISCONSIN

CITY           SKY/WX    TMP DP  RH WIND       PRES   REMARKS
WAUSAU         CLOUDY    50  38  63 NW5       29.54R
6HR MIN TEMP:  50; 6HR MAX TEMP:  55;

MOSINEE        MOCLDY    48  39  71 W5        29.56R
MARSHFIELD     MOCLDY    48  41  76 NW7       29.54R
6HR MIN TEMP:  48; 6HR MAX TEMP:  57;

STEVENS POINT  PTCLDY    45  35  69 CALM      29.53F
6HR MIN TEMP:  45; 6HR MAX TEMP:  58;

WAUPACA        MOCLDY    52  38  58 E3        29.55S
6HR MIN TEMP:  56; 6HR MAX TEMP:  70;

WAUTOMA        PTCLDY    56  39  53 N6        29.55R
6HR MIN TEMP:  56; 6HR MAX TEMP:  69;

WISC RAPIDS    PTCLDY    50  37  61 CALM      29.54F
6HR MIN TEMP:  48; 6HR MAX TEMP:  61;

CAMP DOUGLAS   PTCLDY    50  37  62 W8        29.54S
$$

WIZ011>013-019>022-031-037>040-048>050-230100-
NORTHEAST WISCONSIN

CITY           SKY/WX    TMP DP  RH WIND       PRES   REMARKS
ANTIGO         CLOUDY    44  37  78 W8        29.56R
6HR MIN TEMP:  44; 6HR MAX TEMP:  54;

SHAWANO        CLOUDY    50  39  67 CALM      29.55R
6HR MIN TEMP:  51; 6HR MAX TEMP:  62;

OCONTO         MOCLDY    44  40  87 SE3       29.56R
6HR MIN TEMP:  45; 6HR MAX TEMP:  61;

STURGEON BAY   CLOUDY    42  40  92 E9        29.57S
6HR MIN TEMP:  42; 6HR MAX TEMP:  55;

GREEN BAY      CLOUDY    55  47  74 NE6       29.56R
6HR MIN TEMP:  55; 6HR MAX TEMP:  65; 6HR PCP: TRACE;

MANITOWOC      PTCLDY    44  40  85 CALM      29.55R
6HR MIN TEMP:  44; 6HR MAX TEMP:  54;

APPLETON       MOCLDY    55  37  50 VRB5      29.54R
CLINTONVILLE   MOCLDY    50  37  62 CALM      29.55S
OSHKOSH        MOCLDY    61  50  67 W3        29.53R
6HR MIN TEMP:  61; 6HR MAX TEMP:  66;

$$

WIZ032>034-041-042-053>061-230100-
SOUTHWEST WISCONSIN

CITY           SKY/WX    TMP DP  RH WIND       PRES   REMARKS
LA CROSSE      CLEAR     54  42  64 W7        29.56R
6HR MIN TEMP:  54; 6HR MAX TEMP:  63;

SPARTA         CLEAR     49  40  70 CALM      29.57R
6HR MIN TEMP:  55; 6HR MAX TEMP:  62;

VIROQUA        CLEAR     54  41  62 W8        29.56R
6HR MIN TEMP:  55; 6HR MAX TEMP:  63;

BOSCOBEL       CLEAR     65  41  41 W7        29.54R
6HR MIN TEMP:  63; 6HR MAX TEMP:  72;

PRAIRIE DU CHI CLEAR     57  42  56 NW5       29.57R
6HR MIN TEMP:  61; 6HR MAX TEMP:  70;

PLATTEVILLE    PTCLDY    60  50  69 SW9       29.56R
6HR MIN TEMP:  60; 6HR MAX TEMP:  71;

$$

WIZ056-057-062-063-064-067-068-230100-
SOUTH CENTRAL WISCONSIN

CITY           SKY/WX    TMP DP  RH WIND       PRES   REMARKS
REEDSBURG      CLEAR     60  45  58 CALM      29.53R
6HR MIN TEMP:  61; 6HR MAX TEMP:  67;

BARABOO/DELLS  CLOUDY    62  44  51 NW6       29.53S
6HR MIN TEMP:  62; 6HR MAX TEMP:  66;

LONE ROCK      PTCLDY    62  47  57 NW5       29.53R
6HR MIN TEMP:  62; 6HR MAX TEMP:  71;

MINERAL POINT  CLOUDY    64  46  52 SW10      29.55R
MADISON        PTCLDY    64  50  60 S9        29.54R
6HR MIN TEMP:  62; 6HR MAX TEMP:  68;

MIDDLETON      PTCLDY    64  52  65 SW8       29.54S
6HR MIN TEMP:  64; 6HR MAX TEMP:  71;

WATERTOWN      CLEAR     61  51  70 SW9       29.55R
6HR MIN TEMP:  61; 6HR MAX TEMP:  69;

MONROE         CLEAR     61  52  72 S15       29.55F
JANESVILLE     PTCLDY    64  52  63 SW17G23   29.56R
$$

WIZ051-052-058>065-066-070>072-230100-
SOUTHEAST WISCONSIN

CITY           SKY/WX    TMP DP  RH WIND       PRES   REMARKS
MILWAUKEE      PTCLDY    64  49  57 S14G23    29.53F
6HR MIN TEMP:  64; 6HR MAX TEMP:  71;

WAUKESHA       CLEAR     61  52  72 S16G24    29.54F
MILWAUKEE/TIMM CLEAR     63  50  63 S14G25    29.53F
RACINE         CLEAR     55  45  68 S8        29.56F
6HR MIN TEMP:  55; 6HR MAX TEMP:  70;

KENOSHA        CLEAR     63  50  62 S16       29.56F
6HR MIN TEMP:  62; 6HR MAX TEMP:  69;

FOND DU LAC    CLOUDY    61  47  59 CALM      29.53R
6HR MIN TEMP:  61; 6HR MAX TEMP:  66;

SHEBOYGAN      CLOUDY    50  44  80 CALM      29.53R
6HR MIN TEMP:  50; 6HR MAX TEMP:  70;

WEST BEND      PTCLDY    64  46  52 SW10      29.53R
JUNEAU         PTCLDY    59  49  69 SW7       29.55R
6HR MIN TEMP:  59; 6HR MAX TEMP:  66;

$$

LSZ147-162-230100-
LAKE SUPERIOR

STATION/POSITION TIME  TEMP    WIND        PRES    WAVE
                       AIR SEA DIR/SP/G            HT/PER
                 (UTC) (F)     (DEG/KT/KT) (MB)    (FT/S)
DEVILS ISLAND    0000   35      20/  8/  9 1004.2R
PORT WING        2340   35     340/ 10/ 13 1005.1R
SAXON HARBOR     2340   34     360/  6/  7 1003.0R
$$

LMZ867-665-643>646-230100-
LAKE MICHIGAN

STATION/POSITION TIME  TEMP    WIND        PRES    WAVE
                       AIR SEA DIR/SP/G            HT/PER
                 (UTC) (F)     (DEG/KT/KT) (MB)    (FT/S)
CHAMBERS ISLAND  2340   39      50/  7/ 10 1001.0F
NORTHPORT PIER   2340   38     310/  2/  4 1002.4R
SISTER BAY       2305   42      10/ 10/ 10   N/A
ALGOMA LAKESHORE 2310           9



USA.gov is the U.S. government's official web portal to all federal, state and local government web resources and services.